Location: Augustenthal
(51.7167°N, 10.2833°E)
Time: 08:27:47
(UTC+00:00)

Terra - Pass Details

Date: 18 May 2021
Orbit: 701 x 703 km, 98.2° (Epoch: 20 June)

Event Time Altitude Azimuth Distance (km) Brightness Sun altitude
Exits shadow 19:59:36 - 124° (SE) 2,341 3.9 -6.8°
Reaches altitude 10° 20:00:04 10° 122° (ESE) 2,172 3.7 -6.8°
Maximum altitude 20:04:10 30° 62° (ENE) 1,270 3.0 -7.3°
Drops below altitude 10° 20:08:17 10° 3° (N) 2,184 5.0 -7.7°
Sets 20:10:46 0° 353° (N) 3,107 6.1 -8.0°
